{"data":{"norad_id":60262,"intl_designator":"2024-131H","name":"STARLINK-32163","alt_names":[],"object_type":"PAYLOAD","status":"ACTIVE","operator":null,"country":"US","launch_date":"2024-07-27","launch_site_code":"AFETR","launch_vehicle":null,"mission":null,"orbit_class":"UNKNOWN","rcs_meters":null,"size_class":null,"mass_kg":null,"dimensions":null,"purposes":["comms"],"wikipedia_slug":null,"has_3d_model":false,"image_url":null,"decayed_at":null,"tle_current":{"epoch":"2026-05-25T04:06:05.733216Z","epoch_age_seconds":60344,"freshness":"FRESH","line1":"1 60262U 24131H   26145.17089969  .00001522  00000+0  60775-4 0  9992","line2":"2 60262  53.1611  56.7987 0001219  86.2831 273.8310 15.31707004103431","mean_motion":15.31707004,"eccentricity":0.0001219,"inclination_deg":53.1611,"raan_deg":56.7987,"arg_perigee_deg":86.2831,"mean_anomaly_deg":273.831,"bstar":6.0775e-5,"rev_number":10343,"period_min":94.012758069232,"perigee_km":469.88424118503,"apogee_km":471.5539923063,"semimajor_km":6848.8561167457,"source":"CELESTRAK","updated_at":"2026-05-25T13:38:19.199659Z"}}}